Regional Weather Roundup
Issued by NWS Sioux Falls, SD

Home | Current Version | Previous Version | Text Only | Print | Product List | Glossary On
Versions: 1 2 3 4 5 6 7 8 9 10 11 12 13 14 15 16 17 18 19 20 21 22 23 24 25 26 27 28 29 30 31 32 33 34 35 36 37 38 39 40 41 42 43 44 45 46 47 48 49 50
167
ASUS43 KFSD 082010
RWRFSD

WEATHER ROUNDUP FOR SE SOUTH DAKOTA/SW MINNESOTA/NW IOWA
NATIONAL WEATHER SERVICE SIOUX FALLS SD
200 PM CST MON FEB 08 2016

NOTE: "FAIR" INDICATES FEW OR NO CLOUDS BELOW 12,000 FEET WITH NO
SIGNIFICANT WEATHER AND OR OBSTRUCTIONS TO VISIBILITY.


SDZ038>040-050-052>070-082100-
SOUTHEAST SOUTH DAKOTA

CITY           SKY/WX    TMP DP  RH WIND       PRES   REMARKS
BROOKINGS      FLURRIES  20  13  74 N28       30.05S WCI   2
CHAMBERLAIN    CLOUDY    33  20  59 NW24G33   30.21F WCI  20
HURON          SUNNY     32  15  49 N29G35    30.16S WCI  18
MADISON        LGT RAIN  23  18  80 NW32G39   30.08F WCI   5
MITCHELL       SUNNY     32  18  56 NW28G39   30.17F WCI  18
SIOUX FALLS    PTSUNNY   23  15  71 N24G31    30.09S WCI   7
WINNER         FAIR      35  17  47 NW25G39   30.23F WCI  23
YANKTON        SUNNY    N/A N/A N/A NW32G38   30.11F
$$

MNZ071-072-080-081-089-090-097-098-082100-
SOUTHWEST MINNESOTA

CITY           SKY/WX    TMP DP  RH WIND       PRES   REMARKS
FAIRMONT       CLOUDY    16   7  67 NW29G36   29.96R WCI  -4
JACKSON        CLOUDY    16  10  79 NW30G46   29.99R WCI  -4
LUVERNE        MOSUNNY   23  18  80 N24G37    30.07F WCI   7
MARSHALL       LGT SNOW  16  10  79 N31G38    30.05S WCI  -5
MONTEVIDEO     MOSUNNY   18  12  79 N28G40    30.08S WCI  -1
PIPESTONE      SUNNY     19   9  63 N24G35    30.04F WCI   2
REDWOOD FALLS  LGT SNOW  16   9  74 NW18G36   30.03S WCI   0
TRACY          LGT SNOW  19  11  73 NW28G38   30.04F WCI   0
WINDOM         LGT SNOW  16   9  73 NW35G45   29.99R WCI  -6
WORTHINGTON    CLOUDY   N/A N/A N/A NW31      30.03S VSB 1/2
$$

IAZ001>003-012>014-020>022-031-032-NEZ013-014-SDZ071-082100-
NORTHWEST IOWA

CITY           SKY/WX    TMP DP  RH WIND       PRES   REMARKS
CHEROKEE       MOSUNNY   19  13  76 N25G40    30.07R WCI   2
DENISON        LGT SNOW  21  16  79 N16G32    30.04R WCI   7
ESTHERVILLE    LGT SNOW  15   9  76 NW31G44   30.00R WCI  -6
LE MARS        MIX PCPN  25  21  86 NW26      30.09S WCI   9
ORANGE CITY      N/A     21 N/A N/A N21G26    30.05F WCI   6
SHELDON        LGT SNOW  18  14  86 N26G36    30.04F VSB 1   WCI  -1
SIOUX CITY     PTSUNNY   28  17  63 N32G45    30.07F WCI  12
SPENCER        SNOW      16  10  77 NW32G39   30.03R VSB 1/2 WCI  -5
STORM LAKE     FLURRIES  18  12  79 N31G47    30.03R WCI  -2
$$

ABBREVIATIONS USED IN REMARKS
   TC - TEMPERATURE IN CELSIUS
  WCI - WIND CHILL INDEX
   HX - HEAT INDEX
  VSB - VISIBILITY





USA.gov is the U.S. government's official web portal to all federal, state and local government web resources and services.